Regional Weather Roundup
Issued by NWS

Home | Current Version | Previous Version | Text Only | Print | Product List | Glossary On
Versions: 1 2 3 4 5 6 7 8 9 10 11 12 13 14 15 16 17 18 19 20 21 22 23 24 25 26 27 28 29 30 31 32 33 34 35 36 37 38 39 40 41 42 43 44 45 46 47 48 49 50
000
ASUS45 KBOU 130810
RWRCO

WEATHER ROUNDUP FOR COLORADO
NATIONAL WEATHER SERVICE DENVER/BOULDER CO
100 AM MST WED NOV 13 2019

NOTE: "FAIR" INDICATES FEW OR NO CLOUDS BELOW 12000 FEET WITH NO
SIGNIFICANT WEATHER AND/OR OBSTRUCTIONS TO VISIBILITY.

COZ001>005-013-030-031-130900-
...NORTHWEST COLORADO...

CITY           SKY/WX    TMP DP  RH WIND       PRES   REMARKS
CRAIG          FAIR      27  18  69 E5        30.11F WCI  22
HAYDEN         FAIR      26  13  57 SE12      30.12F WCI  16
MEEKER         FAIR      25   9  50 E3        30.14F
RANGELY        FAIR      24  16  72 CALM      30.13F
RABBIT EARS PA FAIR      25   1  36 W8        30.14F WCI  16
STEAMBOAT SPGS FAIR      23  14  67 CALM      30.11F
WALDEN         NOT AVBL
$$

COZ006>008-011-130900-
...WEST CENTRAL VALLEYS...

CITY           SKY/WX    TMP DP  RH WIND       PRES   REMARKS
GRAND JUNCTION FAIR      32   4  30 SE6       30.17F WCI  26
MONTROSE       FAIR      25  12  58 SE7       30.20F WCI  17
EAGLE          FAIR      25  12  58 SE9       30.19R WCI  15
RIFLE          FAIR      24  11  57 CALM      30.20S
DELTA          FAIR      29  10  44 CALM      30.20S
NUCLA          FAIR      32  12  43 SE8       30.22F WCI  25
$$

COZ017>023-064>068-130900-
...SOUTHWEST COLORADO...

CITY           SKY/WX    TMP DP  RH WIND       PRES   REMARKS
DURANGO        FAIR      22  10  60 CALM      30.20F
CORTEZ         FAIR      20   8  60 NE6       30.22S WCI  12
PAGOSA SPRINGS NOT AVBL
TELLURIDE      FAIR      30   5  34 CALM      30.26F
WOLF CREEK PAS FAIR      28   9  43 SW9       30.34F WCI  20
$$

COZ009-010-012-014-032>034-037-058>063-130900-
...CENTRAL COLORADO...

CITY           SKY/WX    TMP DP  RH WIND       PRES   REMARKS
ASPEN          FAIR      22   9  57 S5        30.17S WCI  16
BUENA VISTA    FAIR      25   8  49 CALM      30.10F
COPPER MTN     FAIR      28 -13  16 W16       30.22R WCI  17
BERTHOUD PASS  FAIR      25   9  50 NW51G60   30.10F WCI   4
DAKOTA HILL    FAIR      28  -6  22 NW31G55   29.95F WCI  12
COTTONWOOD PAS FAIR      36 -17  10 NW6       30.13F
GUNNISON       FAIR      16  12  84 CALM      30.22S
GRANBY         FAIR      24   9  54 NE3       30.13S
KREMMLING      FAIR      21  12  68 W3        30.15S
LEADVILLE      FAIR      32  -9  16 NW9G21    30.15F WCI  24
SALIDA         NOT AVBL
SUNLIGHT       NOT AVBL
WILKERSON PASS FAIR      30 -13  15 W9G18     30.17F WCI  22
$$

COZ069>075-130900-
...SAN LUIS VALLEY/SANGRE DE CRISTO MOUNTAINS...

CITY           SKY/WX    TMP DP  RH WIND       PRES   REMARKS
ALAMOSA        FAIR      12   1  61 SW5       30.18F WCI   4
DEL NORTE      FAIR      20  10  65 W8        30.19F WCI  11
LA VETA PASS   FAIR      27   9  46 W18       30.15F WCI  13
SAGUACHE       FAIR      21   9  58 NW8       30.19S WCI  12
$$

COZ035-036-038>040-130900-
...NORTHERN COLORADO FRONT RANGE...

CITY           SKY/WX    TMP DP  RH WIND       PRES   REMARKS
DENVER INTL AP MOCLDY    48  12  23 S12       29.87F
AURORA         MOCLDY    47  10  22 S12       29.87F
FRONT RANGE AP FAIR      48  14  25 SW10      29.87F
ERIE MUNI ARPT FAIR      55   2  11 NW8G22    29.91S
BOULDER MUN AP FAIR      55   5  13 SW16G24   29.85F
CENTENNIAL     FAIR      47  13  25 S6        29.89F
BROOMFIELD     FAIR      57   7  13 W33G44    29.86S
FORT COLLINS   FAIR      33  26  75 N5        29.85F WCI  29
LONGMONT       NOT AVBL
$$

COZ041-046-047-076>085-087-088-130900-
...PIKES PEAK/PALMER DIVIDE AND SOUTHERN FOOTHILLS...

CITY           SKY/WX    TMP DP  RH WIND       PRES   REMARKS
COLO. SPRINGS  MOCLDY    45  12  26 CALM      29.93F
A. F. ACADEMY  FAIR      51   3  14 CALM      29.92F
SCHRIEVER AFB  NOT AVBL
CHEYENNE MTN   MOCLDY    53  -3  10 S5        29.90F
ELLICOTT       NOT AVBL
FALCON         NOT AVBL
FORT CARSON    FAIR      36  19  49 NW8       29.90F
LIMON          FAIR      25  20  81 N7        29.89F WCI  17
MONUMENT HILL  FAIR      43  10  26 SW7       29.96F
CANON CITY     NOT AVBL
WALSENBURG     NOT AVBL
TRINIDAD       FAIR      33  18  53 NW10      29.95F WCI  25
$$

COZ042>045-048>051-090-091-130900-
...NORTHEAST COLORADO...

CITY           SKY/WX    TMP DP  RH WIND       PRES   REMARKS
GREELEY ARPT   FAIR      30  26  85 N3        29.85F
AKRON          FAIR      40  25  55 W12       29.84F
BURLINGTON       N/A     37  22  54 SW10      29.84F
WRAY           NOT AVBL
YUMA           FAIR      32  19  59 W9        29.83F WCI  24
STERLING       FAIR      32  28  86 S7        29.84S WCI  26
HOLYOKE        FAIR      34  27  75 W6        29.82F WCI  29
FORT MORGAN    NOT AVBL
$$

COZ086-089-092>099-130900-
...SOUTHEAST COLORADO...

CITY           SKY/WX    TMP DP  RH WIND       PRES   REMARKS
PUEBLO         FAIR      25  19  78 W5        29.90F WCI  19
LA JUNTA       FAIR      29  22  75 SW10      29.90F WCI  20
LAMAR          FAIR      26  20  77 W9        29.89F WCI  17
SPRINGFIELD      N/A     34  17  50 W3        29.88F
$$



USA.gov is the U.S. government's official web portal to all federal, state and local government web resources and services.